Regional Weather Roundup
Issued by NWS

Home | Current Version | Previous Version | Graphics & Text | Print | Product List | Glossary On
Versions: 1 2 3 4 5 6 7 8 9 10 11 12 13 14 15 16 17 18 19 20 21 22 23 24 25 26 27 28 29 30 31 32 33 34 35 36 37 38 39 40 41 42 43 44 45 46 47 48 49 50
000
ASUS43 KLSX 280907
RWRMO

WEATHER SUMMARY FOR MISSOURI
NATIONAL WEATHER SERVICE SPRINGFIELD MO
400 AM CDT TUE APR 28 2015

NOTE: "FAIR" INDICATES FEW OR NO CLOUDS BELOW 12,000 FEET WITH NO
       SIGNIFICANT WEATHER AND/OR OBSTRUCTIONS TO VISIBILITY.
       CURRENT SKY AND/OR WEATHER CONDITIONS ARE NOT AVAILABLE FOR
       CHILLICOTHE AND FARMINGTON.

MOZ001>031-035>038-043-044-053-054-281000-
...NORTHERN AND WESTERN MISSOURI...

CITY           SKY/WX    TMP DP  RH WIND       PRES   REMARKS
KANSAS CTY INT PTCLDY    45  36  70 NE7       30.14R
KANSAS C DTWN  MOCLDY    47  40  76 CALM      30.13S
LEE`S SUMMIT   MOCLDY    48  37  65 NE6       30.13S
ST JOSEPH      PTCLDY    41  36  82 N6        30.16R
CHILLICOTHE      N/A     44  38  79 CALM      30.16R
KIRKSVILLE     CLEAR     42  37  82 CALM      30.15R

$$
MOZ066>068-077>081-088>096-101>105-281000-
...SOUTHWEST MISSOURI...

CITY           SKY/WX    TMP DP  RH WIND       PRES   REMARKS
SPRINGFIELD    PTCLDY    46  36  68 NE5       30.06S
JOPLIN         PTCLDY    49  38  65 NE5       30.09R

$$
MOZ032>034-039>042-045>050-055>058-069>072-281000-
...CENTRAL MISSOURI...

CITY           SKY/WX    TMP DP  RH WIND       PRES   REMARKS
COLUMBIA       PTCLDY    47  37  68 NE7       30.12R
JEFFERSON CITY CLEAR     41  38  89 CALM      30.12R
ROLLA          CLEAR     41  36  82 NE6       30.08S
SEDALIA        PTCLDY    46  37  71 NE6       30.13R
WHITEMAN AFB   PTCLDY    45  37  73 NE2       30.11R
WARRENSBURG    MOCLDY    45  37  76 N5        30.12S
OSAGE BEACH    CLEAR     45  36  70 NE3       30.10S

$$
MOZ051-052-059>065-281000-
...EAST CENTRAL MISSOURI...

CITY           SKY/WX    TMP DP  RH WIND       PRES   REMARKS
ST LOUIS INTL  PTCLDY    45  36  70 CALM      30.11S
SPIRIT OF STL  CLEAR     38  37  97 CALM      30.11S
ST CHARLES     CLEAR     41  38  89 N6        30.11S

$$
MOZ072>076-082>087-097>100-106>115-281000-
...SOUTH CENTRAL AND SOUTHEAST MISSOURI...

CITY           SKY/WX    TMP DP  RH WIND       PRES   REMARKS
CAPE GIRARDEAU CLEAR     47  38  71 N3        30.05R
FARMINGTON     CLEAR     45  34  65 NW5       30.11S
POPLAR BLUFF   PTCLDY    50  39  66 N9        30.03R
WEST PLAINS    MOCLDY    46  36  68 NE8       30.05S

$$



USA.gov is the U.S. government's official web portal to all federal, state and local government web resources and services.